{"data":{"norad_id":56225,"epoch":"2026-09-21T22:34:23.064672Z","epoch_age_seconds":63283,"freshness":"FRESH","line1":"1 56225U 23054AZ  26264.94054473  .00001111  00000+0  66750-4 0  9991","line2":"2 56225  97.3520 137.9160 0010681 142.0691 218.1295 15.12821371189999","mean_motion":15.12821371,"eccentricity":0.0010681,"inclination_deg":97.352,"raan_deg":137.916,"arg_perigee_deg":142.0691,"mean_anomaly_deg":218.1295,"bstar":6.675e-5,"rev_number":18999,"period_min":95.186386681472,"perigee_km":520.22460920609,"apogee_km":534.9766459261,"semimajor_km":6905.7376275661,"source":"CELESTRAK","updated_at":"2026-09-22T09:00:25.737139Z"}}